Time,TemperatureF,DewpointF,PressureIn,WindDirection,WindDirectionDegrees,WindSpeedMPH,WindSpeedGustMPH,Humidity,HourlyPrecipIn,Conditions,Clouds,dailyrainin,SoftwareType,DateUTC
2013-09-20 00:01:00,50.4,41.7,29.91,WNW,290,3.0,5.0,72,0.00,,,0.00,LWC V2.00 B2112,2013-09-20 07:01:00,
2013-09-20 00:06:00,50.7,41.6,29.91,West,269,6.0,6.0,71,0.00,,,0.00,LWC V2.00 B2112,2013-09-20 07:06:00,
2013-09-20 00:11:00,51.4,41.2,29.91,West,271,3.0,6.0,68,0.00,,,0.00,LWC V2.00 B2112,2013-09-20 07:11:00,
2013-09-20 00:16:00,51.4,41.6,29.91,West,261,2.0,4.0,69,0.00,,,0.00,LWC V2.00 B2112,2013-09-20 07:16:00,
2013-09-20 00:21:00,50.9,41.5,29.91,WNW,283,1.0,4.0,70,0.00,,,0.00,LWC V2.00 B2112,2013-09-20 07:21:00,
2013-09-20 00:26:00,50.4,41.4,29.91,NW,309,1.0,3.0,71,0.00,,,0.00,LWC V2.00 B2112,2013-09-20 07:26:00,
2013-09-20 00:31:00,49.9,41.2,29.91,West,277,1.0,3.0,72,0.00,,,0.00,LWC V2.00 B2112,2013-09-20 07:31:00,
2013-09-20 00:36:00,49.7,41.4,29.91,WNW,300,2.0,2.0,73,0.00,,,0.00,LWC V2.00 B2112,2013-09-20 07:36:00,
2013-09-20 00:41:00,49.6,40.9,29.91,West,276,3.0,4.0,72,0.00,,,0.00,LWC V2.00 B2112,2013-09-20 07:41:00,
2013-09-20 00:46:00,50.3,41.3,29.91,West,271,3.0,6.0,71,0.00,,,0.00,LWC V2.00 B2112,2013-09-20 07:46:00,
2013-09-20 00:51:00,50.5,41.5,29.91,WNW,288,2.0,7.0,71,0.00,,,0.00,LWC V2.00 B2112,2013-09-20 07:51:00,
2013-09-20 00:56:00,50.2,41.5,29.91,West,281,2.0,4.0,72,0.00,,,0.00,LWC V2.00 B2112,2013-09-20 07:56:00,
2013-09-20 01:01:00,49.7,41.4,29.91,West,267,2.0,3.0,73,0.00,,,0.00,LWC V2.00 B2112,2013-09-20 08:01:00,
2013-09-20 01:06:00,49.8,40.8,29.90,West,274,7.0,8.0,71,0.00,,,0.00,LWC V2.00 B2112,2013-09-20 08:06:00,
2013-09-20 01:11:00,50.1,40.7,29.91,WNW,283,4.0,6.0,70,0.00,,,0.00,LWC V2.00 B2112,2013-09-20 08:11:00,
2013-09-20 01:16:00,50.1,41.1,29.90,West,277,6.0,6.0,71,0.00,,,0.00,LWC V2.00 B2112,2013-09-20 08:16:00,
2013-09-20 01:21:00,50.4,40.6,29.90,West,261,4.0,8.0,69,0.00,,,0.00,LWC V2.00 B2112,2013-09-20 08:21:00,
2013-09-20 01:26:00,50.6,40.8,29.90,NW,306,1.0,5.0,69,0.00,,,0.00,LWC V2.00 B2112,2013-09-20 08:26:00,
2013-09-20 01:31:00,50.2,40.8,29.90,West,273,6.0,6.0,70,0.00,,,0.00,LWC V2.00 B2112,2013-09-20 08:31:00,
2013-09-20 01:36:00,49.9,40.5,29.90,West,264,6.0,7.0,70,0.00,,,0.00,LWC V2.00 B2112,2013-09-20 08:36:00,
2013-09-20 01:41:00,50.0,40.2,29.90,WNW,282,4.0,7.0,69,0.00,,,0.00,LWC V2.00 B2112,2013-09-20 08:41:00,
2013-09-20 01:46:00,50.3,40.1,29.90,NW,304,4.0,10.0,68,0.00,,,0.00,LWC V2.00 B2112,2013-09-20 08:46:00,
2013-09-20 01:51:00,50.6,40.4,29.90,West,267,7.0,7.0,68,0.00,,,0.00,LWC V2.00 B2112,2013-09-20 08:51:00,
2013-09-20 01:56:00,50.4,40.6,29.90,West,265,4.0,6.0,69,0.00,,,0.00,LWC V2.00 B2112,2013-09-20 08:56:00,
2013-09-20 02:01:00,50.0,40.2,29.90,West,261,4.0,7.0,69,0.00,,,0.00,LWC V2.00 B2112,2013-09-20 09:01:00,
2013-09-20 02:06:00,50.1,40.3,29.90,West,276,6.0,8.0,69,0.00,,,0.00,LWC V2.00 B2112,2013-09-20 09:06:00,
2013-09-20 02:11:00,50.1,40.0,29.89,West,270,6.0,7.0,68,0.00,,,0.00,LWC V2.00 B2112,2013-09-20 09:11:00,
2013-09-20 02:16:00,49.9,40.1,29.89,West,281,4.0,7.0,69,0.00,,,0.00,LWC V2.00 B2112,2013-09-20 09:16:00,
2013-09-20 02:21:00,49.6,40.2,29.89,West,271,6.0,8.0,70,0.00,,,0.00,LWC V2.00 B2112,2013-09-20 09:21:00,
2013-09-20 02:26:00,49.7,39.9,29.89,West,267,6.0,8.0,69,0.00,,,0.00,LWC V2.00 B2112,2013-09-20 09:26:00,
2013-09-20 02:31:00,49.7,39.9,29.89,WNW,282,4.0,8.0,69,0.00,,,0.00,LWC V2.00 B2112,2013-09-20 09:31:00,
2013-09-20 02:36:00,49.8,40.4,29.89,West,269,6.0,7.0,70,0.00,,,0.00,LWC V2.00 B2112,2013-09-20 09:36:00,
2013-09-20 02:41:00,49.6,39.9,29.89,West,272,6.0,7.0,69,0.00,,,0.00,LWC V2.00 B2112,2013-09-20 09:41:00,
2013-09-20 02:46:00,49.7,39.9,29.89,West,265,7.0,8.0,69,0.00,,,0.00,LWC V2.00 B2112,2013-09-20 09:46:00,
2013-09-20 02:51:00,49.5,39.8,29.89,WNW,292,4.0,5.0,69,0.00,,,0.00,LWC V2.00 B2112,2013-09-20 09:51:00,
2013-09-20 02:56:00,49.0,40.0,29.89,West,268,3.0,6.0,71,0.00,,,0.00,LWC V2.00 B2112,2013-09-20 09:56:00,
2013-09-20 03:01:00,48.7,40.1,29.89,WNW,288,5.0,7.0,72,0.00,,,0.00,LWC V2.00 B2112,2013-09-20 10:01:00,
2013-09-20 03:06:00,48.4,40.1,29.89,West,280,6.0,6.0,73,0.00,,,0.00,LWC V2.00 B2112,2013-09-20 10:06:00,
2013-09-20 03:11:00,48.7,39.7,29.88,WNW,292,5.0,9.0,71,0.00,,,0.00,LWC V2.00 B2112,2013-09-20 10:11:00,
2013-09-20 03:16:00,49.2,39.8,29.88,West,267,3.0,6.0,70,0.00,,,0.00,LWC V2.00 B2112,2013-09-20 10:16:00,
2013-09-20 03:21:00,49.2,39.8,29.88,West,263,3.0,8.0,70,0.00,,,0.00,LWC V2.00 B2112,2013-09-20 10:21:00,
2013-09-20 03:26:00,48.9,39.9,29.88,West,260,7.0,7.0,71,0.00,,,0.00,LWC V2.00 B2112,2013-09-20 10:26:00,
2013-09-20 03:31:00,48.9,39.6,29.88,WSW,251,7.0,9.0,70,0.00,,,0.00,LWC V2.00 B2112,2013-09-20 10:31:00,
2013-09-20 03:36:00,49.0,39.6,29.88,West,261,6.0,7.0,70,0.00,,,0.00,LWC V2.00 B2112,2013-09-20 10:36:00,
2013-09-20 03:41:00,49.0,39.6,29.88,West,278,6.0,7.0,70,0.00,,,0.00,LWC V2.00 B2112,2013-09-20 10:41:00,
2013-09-20 03:46:00,48.7,39.7,29.88,West,273,4.0,7.0,71,0.00,,,0.00,LWC V2.00 B2112,2013-09-20 10:46:00,
2013-09-20 03:51:00,48.7,39.7,29.88,West,266,6.0,7.0,71,0.00,,,0.00,LWC V2.00 B2112,2013-09-20 10:51:00,
2013-09-20 03:56:00,48.7,39.4,29.88,WNW,286,7.0,9.0,70,0.00,,,0.00,LWC V2.00 B2112,2013-09-20 10:56:00,
2013-09-20 04:01:00,48.4,39.8,29.87,WSW,257,5.0,7.0,72,0.00,,,0.00,LWC V2.00 B2112,2013-09-20 11:01:00,
2013-09-20 04:06:00,48.3,39.7,29.87,West,261,6.0,7.0,72,0.00,,,0.00,LWC V2.00 B2112,2013-09-20 11:06:00,
2013-09-20 04:11:00,48.5,39.5,29.87,West,279,6.0,9.0,71,0.00,,,0.00,LWC V2.00 B2112,2013-09-20 11:11:00,
2013-09-20 04:16:00,48.7,39.7,29.87,West,272,3.0,7.0,71,0.00,,,0.00,LWC V2.00 B2112,2013-09-20 11:16:00,
2013-09-20 04:21:00,48.6,39.6,29.87,West,264,6.0,9.0,71,0.00,,,0.00,LWC V2.00 B2112,2013-09-20 11:21:00,
2013-09-20 04:26:00,48.3,39.7,29.87,West,265,6.0,8.0,72,0.00,,,0.00,LWC V2.00 B2112,2013-09-20 11:26:00,
2013-09-20 04:31:00,48.0,39.4,29.87,WNW,289,4.0,6.0,72,0.00,,,0.00,LWC V2.00 B2112,2013-09-20 11:31:00,
2013-09-20 04:36:00,48.1,39.5,29.87,WNW,288,4.0,8.0,72,0.00,,,0.00,LWC V2.00 B2112,2013-09-20 11:36:00,
2013-09-20 04:41:00,48.3,39.3,29.86,West,263,7.0,9.0,71,0.00,,,0.00,LWC V2.00 B2112,2013-09-20 11:41:00,
2013-09-20 04:46:00,48.1,39.5,29.86,West,265,6.0,7.0,72,0.00,,,0.00,LWC V2.00 B2112,2013-09-20 11:46:00,
2013-09-20 04:51:00,47.8,39.2,29.86,WNW,285,6.0,8.0,72,0.00,,,0.00,LWC V2.00 B2112,2013-09-20 11:51:00,
2013-09-20 04:56:00,47.9,39.3,29.86,West,265,6.0,8.0,72,0.00,,,0.00,LWC V2.00 B2112,2013-09-20 11:56:00,
2013-09-20 05:01:00,47.9,39.3,29.86,WNW,288,4.0,8.0,72,0.00,,,0.00,LWC V2.00 B2112,2013-09-20 12:01:00,
2013-09-20 05:06:00,47.7,39.5,29.85,WNW,282,4.0,7.0,73,0.00,,,0.00,LWC V2.00 B2112,2013-09-20 12:06:00,
2013-09-20 05:11:00,47.3,39.4,29.85,West,272,6.0,6.0,74,0.00,,,0.00,LWC V2.00 B2112,2013-09-20 12:11:00,
2013-09-20 05:16:00,47.1,39.2,29.85,West,269,3.0,7.0,74,0.00,,,0.00,LWC V2.00 B2112,2013-09-20 12:16:00,
2013-09-20 05:21:00,47.0,39.1,29.85,WNW,292,4.0,7.0,74,0.00,,,0.00,LWC V2.00 B2112,2013-09-20 12:21:00,
2013-09-20 05:26:00,46.8,39.3,29.85,WNW,297,5.0,8.0,75,0.00,,,0.00,LWC V2.00 B2112,2013-09-20 12:26:00,
2013-09-20 05:31:00,46.7,39.2,29.85,West,273,6.0,8.0,75,0.00,,,0.00,LWC V2.00 B2112,2013-09-20 12:31:00,
2013-09-20 05:36:00,46.7,39.2,29.85,West,280,8.0,8.0,75,0.00,,,0.00,LWC V2.00 B2112,2013-09-20 12:36:00,
2013-09-20 05:41:00,46.6,39.4,29.85,NW,305,7.0,7.0,76,0.00,,,0.00,LWC V2.00 B2112,2013-09-20 12:41:00,
2013-09-20 05:46:00,46.5,39.0,29.85,WNW,282,6.0,8.0,75,0.00,,,0.00,LWC V2.00 B2112,2013-09-20 12:46:00,
2013-09-20 05:51:00,46.7,39.2,29.85,WNW,285,4.0,8.0,75,0.00,,,0.00,LWC V2.00 B2112,2013-09-20 12:51:00,
2013-09-20 05:56:00,46.8,39.0,29.85,West,280,4.0,8.0,74,0.00,,,0.00,LWC V2.00 B2112,2013-09-20 12:56:00,
2013-09-20 06:01:00,46.6,39.1,29.85,WNW,284,3.0,4.0,75,0.00,,,0.00,LWC V2.00 B2112,2013-09-20 13:01:00,
2013-09-20 06:06:00,46.3,39.2,29.85,WNW,287,5.0,6.0,76,0.00,,,0.00,LWC V2.00 B2112,2013-09-20 13:06:00,
2013-09-20 06:11:00,46.2,39.1,29.85,West,279,7.0,7.0,76,0.00,,,0.00,LWC V2.00 B2112,2013-09-20 13:11:00,
2013-09-20 06:16:00,46.5,39.0,29.85,West,277,4.0,7.0,75,0.00,,,0.00,LWC V2.00 B2112,2013-09-20 13:16:00,
2013-09-20 06:21:00,46.4,38.9,29.84,WNW,282,4.0,7.0,75,0.00,,,0.00,LWC V2.00 B2112,2013-09-20 13:21:00,
2013-09-20 06:26:00,46.3,39.2,29.84,WNW,284,7.0,7.0,76,0.00,,,0.00,LWC V2.00 B2112,2013-09-20 13:26:00,
2013-09-20 06:31:00,46.1,39.0,29.84,West,271,4.0,8.0,76,0.00,,,0.00,LWC V2.00 B2112,2013-09-20 13:31:00,
2013-09-20 06:36:00,46.1,39.0,29.84,WNW,284,6.0,7.0,76,0.00,,,0.00,LWC V2.00 B2112,2013-09-20 13:36:00,
2013-09-20 06:41:00,46.1,39.0,29.84,West,271,6.0,7.0,76,0.00,,,0.00,LWC V2.00 B2112,2013-09-20 13:41:00,
2013-09-20 06:46:00,46.0,38.9,29.84,WNW,288,5.0,6.0,76,0.00,,,0.00,LWC V2.00 B2112,2013-09-20 13:46:00,
2013-09-20 06:51:00,46.1,39.0,29.84,West,279,6.0,6.0,76,0.00,,,0.00,LWC V2.00 B2112,2013-09-20 13:51:00,
2013-09-20 06:56:00,46.1,39.0,29.84,West,263,7.0,7.0,76,0.00,,,0.00,LWC V2.00 B2112,2013-09-20 13:56:00,
2013-09-20 07:01:00,46.1,39.0,29.84,West,277,7.0,8.0,76,0.00,,,0.00,LWC V2.00 B2112,2013-09-20 14:01:00,
2013-09-20 07:06:00,46.0,38.9,29.85,West,277,6.0,7.0,76,0.00,,,0.00,LWC V2.00 B2112,2013-09-20 14:06:00,
2013-09-20 07:11:00,45.8,39.0,29.85,West,276,4.0,7.0,77,0.00,,,0.00,LWC V2.00 B2112,2013-09-20 14:11:00,
2013-09-20 07:16:00,45.9,38.8,29.85,WNW,289,7.0,7.0,76,0.00,,,0.00,LWC V2.00 B2112,2013-09-20 14:16:00,
2013-09-20 07:21:00,45.9,39.1,29.85,West,266,4.0,7.0,77,0.00,,,0.00,LWC V2.00 B2112,2013-09-20 14:21:00,
2013-09-20 07:26:00,45.9,39.1,29.85,West,279,4.0,7.0,77,0.00,,,0.00,LWC V2.00 B2112,2013-09-20 14:26:00,
2013-09-20 07:31:00,46.0,38.9,29.84,WSW,253,5.0,8.0,76,0.00,,,0.00,LWC V2.00 B2112,2013-09-20 14:31:00,
2013-09-20 07:36:00,46.2,39.1,29.84,West,266,7.0,9.0,76,0.00,,,0.00,LWC V2.00 B2112,2013-09-20 14:36:00,
2013-09-20 07:41:00,46.2,39.1,29.84,WNW,285,7.0,8.0,76,0.00,,,0.00,LWC V2.00 B2112,2013-09-20 14:41:00,
2013-09-20 07:46:00,46.2,39.1,29.84,West,263,4.0,7.0,76,0.00,,,0.00,LWC V2.00 B2112,2013-09-20 14:46:00,
2013-09-20 07:51:00,46.3,39.5,29.84,NW,304,2.0,2.0,77,0.00,,,0.00,LWC V2.00 B2112,2013-09-20 14:51:00,
2013-09-20 07:56:00,46.1,39.3,29.84,WNW,285,3.0,4.0,77,0.00,,,0.00,LWC V2.00 B2112,2013-09-20 14:56:00,
2013-09-20 08:01:00,46.4,39.3,29.84,WNW,284,3.0,6.0,76,0.00,,,0.00,LWC V2.00 B2112,2013-09-20 15:01:00,
2013-09-20 08:06:00,46.6,39.8,29.83,West,278,3.0,4.0,77,0.00,,,0.00,LWC V2.00 B2112,2013-09-20 15:06:00,
2013-09-20 08:11:00,46.8,39.6,29.83,West,271,2.0,4.0,76,0.00,,,0.00,LWC V2.00 B2112,2013-09-20 15:11:00,
2013-09-20 08:16:00,46.9,40.1,29.83,West,267,4.0,4.0,77,0.00,,,0.00,LWC V2.00 B2112,2013-09-20 15:16:00,
2013-09-20 08:21:00,47.3,39.8,29.83,WNW,290,4.0,6.0,75,0.00,,,0.00,LWC V2.00 B2112,2013-09-20 15:21:00,
2013-09-20 08:26:00,48.4,40.5,29.83,West,269,3.0,5.0,74,0.00,,,0.00,LWC V2.00 B2112,2013-09-20 15:26:00,
2013-09-20 08:31:00,49.6,40.6,29.83,West,277,6.0,6.0,71,0.00,,,0.00,LWC V2.00 B2112,2013-09-20 15:31:00,
2013-09-20 08:36:00,50.5,41.1,29.82,WNW,287,4.0,6.0,70,0.00,,,0.00,LWC V2.00 B2112,2013-09-20 15:36:00,
2013-09-20 08:41:00,51.0,41.6,29.82,West,281,2.0,4.0,70,0.00,,,0.00,LWC V2.00 B2112,2013-09-20 15:41:00,
2013-09-20 08:46:00,51.5,40.5,29.82,WNW,301,7.0,9.0,66,0.00,,,0.00,LWC V2.00 B2112,2013-09-20 15:46:00,
2013-09-20 08:51:00,52.3,41.3,29.81,WNW,287,5.0,5.0,66,0.00,,,0.00,LWC V2.00 B2112,2013-09-20 15:51:00,
2013-09-20 08:56:00,52.7,41.3,29.81,West,281,1.0,4.0,65,0.00,,,0.00,LWC V2.00 B2112,2013-09-20 15:56:00,
2013-09-20 09:01:00,53.3,41.4,29.81,WNW,301,4.0,6.0,64,0.00,,,0.00,LWC V2.00 B2112,2013-09-20 16:01:00,
2013-09-20 09:06:00,53.7,41.4,29.81,WSW,243,3.0,4.0,63,0.00,,,0.00,LWC V2.00 B2112,2013-09-20 16:06:00,
2013-09-20 09:11:00,54.1,42.2,29.81,West,265,2.0,6.0,64,0.00,,,0.00,LWC V2.00 B2112,2013-09-20 16:11:00,
2013-09-20 09:16:00,54.7,41.1,29.80,West,271,6.0,8.0,60,0.00,,,0.00,LWC V2.00 B2112,2013-09-20 16:16:00,
2013-09-20 09:21:00,55.3,42.1,29.80,West,278,2.0,4.0,61,0.00,,,0.00,LWC V2.00 B2112,2013-09-20 16:21:00,
2013-09-20 09:26:00,55.7,42.5,29.80,WNW,294,1.0,2.0,61,0.00,,,0.00,LWC V2.00 B2112,2013-09-20 16:26:00,
2013-09-20 09:31:00,56.3,41.3,29.79,NNW,338,1.0,6.0,57,0.00,,,0.00,LWC V2.00 B2112,2013-09-20 16:31:00,
2013-09-20 09:36:00,56.9,40.9,29.79,West,265,3.0,6.0,55,0.00,,,0.00,LWC V2.00 B2112,2013-09-20 16:36:00,
2013-09-20 09:41:00,57.4,42.3,29.79,NW,313,1.0,1.0,57,0.00,,,0.00,LWC V2.00 B2112,2013-09-20 16:41:00,
2013-09-20 09:46:00,58.0,42.9,29.79,SSW,212,2.0,3.0,57,0.00,,,0.00,LWC V2.00 B2112,2013-09-20 16:46:00,
2013-09-20 09:51:00,58.3,42.2,29.78,ESE,108,2.0,3.0,55,0.00,,,0.00,LWC V2.00 B2112,2013-09-20 16:51:00,
2013-09-20 09:56:00,59.2,43.5,29.78,NNE,30,2.0,2.0,56,0.00,,,0.00,LWC V2.00 B2112,2013-09-20 16:56:00,
2013-09-20 10:01:00,60.3,43.1,29.77,SE,126,2.0,3.0,53,0.00,,,0.00,LWC V2.00 B2112,2013-09-20 17:01:00,
2013-09-20 10:06:00,61.0,44.7,29.77,ESE,117,1.0,3.0,55,0.00,,,0.00,LWC V2.00 B2112,2013-09-20 17:06:00,
2013-09-20 10:11:00,61.5,43.7,29.77,ESE,121,1.0,1.0,52,0.00,,,0.00,LWC V2.00 B2112,2013-09-20 17:11:00,
2013-09-20 10:16:00,61.9,42.5,29.76,SE,125,0.0,2.0,49,0.00,,,0.00,LWC V2.00 B2112,2013-09-20 17:16:00,
2013-09-20 10:21:00,62.4,44.5,29.76,ESE,119,3.0,4.0,52,0.00,,,0.00,LWC V2.00 B2112,2013-09-20 17:21:00,
2013-09-20 10:26:00,62.3,42.4,29.76,ESE,112,1.0,2.0,48,0.00,,,0.00,LWC V2.00 B2112,2013-09-20 17:26:00,
2013-09-20 10:31:00,62.6,43.2,29.75,South,172,0.0,1.0,49,0.00,,,0.00,LWC V2.00 B2112,2013-09-20 17:31:00,
2013-09-20 10:36:00,63.3,44.3,29.75,ESE,106,0.0,0.0,50,0.00,,,0.00,LWC V2.00 B2112,2013-09-20 17:36:00,
2013-09-20 10:41:00,63.8,43.2,29.75,ESE,112,3.0,3.0,47,0.00,,,0.00,LWC V2.00 B2112,2013-09-20 17:41:00,
2013-09-20 10:46:00,64.0,43.9,29.74,East,97,1.0,2.0,48,0.00,,,0.00,LWC V2.00 B2112,2013-09-20 17:46:00,
2013-09-20 10:51:00,64.2,44.1,29.74,ESE,116,2.0,3.0,48,0.00,,,0.00,LWC V2.00 B2112,2013-09-20 17:51:00,
2013-09-20 10:56:00,64.2,44.1,29.74,ESE,113,4.0,6.0,48,0.00,,,0.00,LWC V2.00 B2112,2013-09-20 17:56:00,
2013-09-20 11:01:00,64.4,44.3,29.73,SE,136,1.0,3.0,48,0.00,,,0.00,LWC V2.00 B2112,2013-09-20 18:01:00,
2013-09-20 11:06:00,65.1,44.4,29.73,ESE,113,3.0,4.0,47,0.00,,,0.00,LWC V2.00 B2112,2013-09-20 18:06:00,
2013-09-20 11:11:00,65.9,45.1,29.73,SE,141,0.0,2.0,47,0.00,,,0.00,LWC V2.00 B2112,2013-09-20 18:11:00,
2013-09-20 11:16:00,66.8,45.3,29.72,South,182,0.0,3.0,46,0.00,,,0.00,LWC V2.00 B2112,2013-09-20 18:16:00,
2013-09-20 11:21:00,67.5,45.4,29.72,SSW,200,1.0,3.0,45,0.00,,,0.00,LWC V2.00 B2112,2013-09-20 18:21:00,
2013-09-20 11:26:00,67.6,45.5,29.71,SE,134,4.0,5.0,45,0.00,,,0.00,LWC V2.00 B2112,2013-09-20 18:26:00,
2013-09-20 11:31:00,66.9,44.9,29.71,ESE,123,3.0,6.0,45,0.00,,,0.00,LWC V2.00 B2112,2013-09-20 18:31:00,
2013-09-20 11:36:00,66.7,48.5,29.70,SE,131,2.0,3.0,52,0.00,,,0.00,LWC V2.00 B2112,2013-09-20 18:36:00,
2013-09-20 11:41:00,67.2,46.8,29.70,SSW,193,1.0,3.0,48,0.00,,,0.00,LWC V2.00 B2112,2013-09-20 18:41:00,
2013-09-20 11:46:00,67.5,45.4,29.70,ESE,119,2.0,3.0,45,0.00,,,0.00,LWC V2.00 B2112,2013-09-20 18:46:00,
2013-09-20 11:51:00,67.6,46.6,29.70,ESE,120,2.0,4.0,47,0.00,,,0.00,LWC V2.00 B2112,2013-09-20 18:51:00,
2013-09-20 11:56:00,67.4,45.9,29.69,ESE,108,2.0,4.0,46,0.00,,,0.00,LWC V2.00 B2112,2013-09-20 18:56:00,
2013-09-20 12:01:00,67.5,46.0,29.69,SE,130,2.0,3.0,46,0.00,,,0.00,LWC V2.00 B2112,2013-09-20 19:01:00,
2013-09-20 12:06:00,67.9,46.9,29.69,SE,134,0.0,2.0,47,0.00,,,0.00,LWC V2.00 B2112,2013-09-20 19:06:00,
2013-09-20 12:11:00,68.2,47.8,29.68,ESE,115,1.0,2.0,48,0.00,,,0.00,LWC V2.00 B2112,2013-09-20 19:11:00,
2013-09-20 12:16:00,68.6,48.1,29.68,ESE,119,3.0,3.0,48,0.00,,,0.00,LWC V2.00 B2112,2013-09-20 19:16:00,
2013-09-20 12:21:00,69.0,47.3,29.68,South,188,2.0,3.0,46,0.00,,,0.00,LWC V2.00 B2112,2013-09-20 19:21:00,
2013-09-20 12:26:00,69.3,49.3,29.68,SSE,155,0.0,2.0,49,0.00,,,0.00,LWC V2.00 B2112,2013-09-20 19:26:00,
2013-09-20 12:31:00,69.8,46.9,29.67,SE,128,2.0,2.0,44,0.00,,,0.00,LWC V2.00 B2112,2013-09-20 19:31:00,
2013-09-20 12:36:00,70.2,45.4,29.67,ENE,64,1.0,2.0,41,0.00,,,0.00,LWC V2.00 B2112,2013-09-20 19:36:00,
2013-09-20 12:41:00,70.6,43.0,29.67,ENE,68,1.0,2.0,37,0.00,,,0.00,LWC V2.00 B2112,2013-09-20 19:41:00,
2013-09-20 12:46:00,71.1,44.9,29.67,SE,144,1.0,4.0,39,0.00,,,0.00,LWC V2.00 B2112,2013-09-20 19:46:00,
2013-09-20 12:51:00,71.4,43.8,29.66,North,350,1.0,2.0,37,0.00,,,0.00,LWC V2.00 B2112,2013-09-20 19:51:00,
2013-09-20 12:56:00,71.6,46.0,29.66,East,86,2.0,3.0,40,0.00,,,0.00,LWC V2.00 B2112,2013-09-20 19:56:00,
2013-09-20 13:01:00,71.8,44.8,29.66,East,86,1.0,2.0,38,0.00,,,0.00,LWC V2.00 B2112,2013-09-20 20:01:00,
2013-09-20 13:07:00,72.1,45.8,29.66,ENE,70,2.0,3.0,39,0.00,,,0.00,LWC V2.00 B2112,2013-09-20 20:07:00,
2013-09-20 13:12:00,72.1,45.8,29.66,ESE,121,1.0,1.0,39,0.00,,,0.00,LWC V2.00 B2112,2013-09-20 20:12:00,
2013-09-20 13:17:00,72.4,47.4,29.66,SE,127,1.0,3.0,41,0.00,,,0.00,LWC V2.00 B2112,2013-09-20 20:17:00,
2013-09-20 13:22:00,72.5,43.3,29.65,ESE,119,4.0,6.0,35,0.00,,,0.00,LWC V2.00 B2112,2013-09-20 20:22:00,
2013-09-20 13:27:00,72.5,44.7,29.65,East,96,4.0,4.0,37,0.00,,,0.00,LWC V2.00 B2112,2013-09-20 20:27:00,
2013-09-20 13:32:00,72.8,42.8,29.65,West,265,3.0,6.0,34,0.00,,,0.00,LWC V2.00 B2112,2013-09-20 20:32:00,
2013-09-20 13:37:00,72.9,42.9,29.64,East,86,1.0,2.0,34,0.00,,,0.00,LWC V2.00 B2112,2013-09-20 20:37:00,
2013-09-20 13:42:00,72.9,43.6,29.64,West,275,2.0,4.0,35,0.00,,,0.00,LWC V2.00 B2112,2013-09-20 20:42:00,
2013-09-20 13:47:00,72.8,42.0,29.63,WNW,287,4.0,6.0,33,0.00,,,0.00,LWC V2.00 B2112,2013-09-20 20:47:00,
2013-09-20 13:52:00,72.8,44.3,29.63,West,266,1.0,4.0,36,0.00,,,0.00,LWC V2.00 B2112,2013-09-20 20:52:00,
2013-09-20 13:57:00,72.8,45.0,29.63,NW,309,2.0,4.0,37,0.00,,,0.00,LWC V2.00 B2112,2013-09-20 20:57:00,
2013-09-20 14:02:00,72.6,42.6,29.63,West,275,2.0,6.0,34,0.00,,,0.00,LWC V2.00 B2112,2013-09-20 21:02:00,
2013-09-20 14:07:00,72.5,44.0,29.62,West,259,3.0,3.0,36,0.00,,,0.00,LWC V2.00 B2112,2013-09-20 21:07:00,
2013-09-20 14:11:00,72.6,44.8,29.62,West,261,1.0,1.0,37,0.00,,,0.00,LWC V2.00 B2112,2013-09-20 21:11:00,
2013-09-20 14:16:00,72.9,45.8,29.62,WNW,288,1.0,2.0,38,0.00,,,0.00,LWC V2.00 B2112,2013-09-20 21:16:00,
2013-09-20 14:21:00,73.4,48.9,29.62,SE,142,1.0,2.0,42,0.00,,,0.00,LWC V2.00 B2112,2013-09-20 21:21:00,
2013-09-20 14:26:00,73.9,43.7,29.61,SE,124,4.0,4.0,34,0.00,,,0.00,LWC V2.00 B2112,2013-09-20 21:26:00,
2013-09-20 14:31:00,74.2,46.2,29.61,ESE,123,1.0,2.0,37,0.00,,,0.00,LWC V2.00 B2112,2013-09-20 21:31:00,
2013-09-20 14:36:00,74.8,47.5,29.60,WNW,299,2.0,4.0,38,0.00,,,0.00,LWC V2.00 B2112,2013-09-20 21:36:00,
2013-09-20 14:41:00,74.6,44.4,29.60,South,172,1.0,4.0,34,0.00,,,0.00,LWC V2.00 B2112,2013-09-20 21:41:00,
2013-09-20 14:46:00,74.8,46.8,29.60,SW,229,2.0,3.0,37,0.00,,,0.00,LWC V2.00 B2112,2013-09-20 21:46:00,
2013-09-20 14:51:00,74.7,46.7,29.60,West,267,2.0,3.0,37,0.00,,,0.00,LWC V2.00 B2112,2013-09-20 21:51:00,
2013-09-20 14:56:00,74.8,46.0,29.60,NW,318,1.0,3.0,36,0.00,,,0.00,LWC V2.00 B2112,2013-09-20 21:56:00,
2013-09-20 15:01:00,75.0,42.3,29.59,NW,322,2.0,3.0,31,0.00,,,0.00,LWC V2.00 B2112,2013-09-20 22:01:00,
2013-09-20 15:06:00,75.1,45.6,29.59,SSW,208,1.0,1.0,35,0.00,,,0.00,LWC V2.00 B2112,2013-09-20 22:06:00,
2013-09-20 15:11:00,75.0,43.9,29.59,WSW,249,4.0,4.0,33,0.00,,,0.00,LWC V2.00 B2112,2013-09-20 22:11:00,
2013-09-20 15:16:00,75.0,45.5,29.59,West,268,3.0,3.0,35,0.00,,,0.00,LWC V2.00 B2112,2013-09-20 22:16:00,
2013-09-20 15:21:00,75.0,44.7,29.59,SSW,205,2.0,4.0,34,0.00,,,0.00,LWC V2.00 B2112,2013-09-20 22:21:00,
2013-09-20 15:27:00,75.3,45.0,29.58,SSW,203,1.0,4.0,34,0.00,,,0.00,LWC V2.00 B2112,2013-09-20 22:27:00,
2013-09-20 15:32:00,75.5,41.9,29.58,West,273,3.0,4.0,30,0.00,,,0.00,LWC V2.00 B2112,2013-09-20 22:32:00,
2013-09-20 15:37:00,75.2,45.7,29.58,WSW,257,2.0,4.0,35,0.00,,,0.00,LWC V2.00 B2112,2013-09-20 22:37:00,
2013-09-20 15:42:00,75.0,48.3,29.58,West,261,1.0,2.0,39,0.00,,,0.00,LWC V2.00 B2112,2013-09-20 22:42:00,
2013-09-20 15:47:00,75.1,42.4,29.58,SSW,205,1.0,2.0,31,0.00,,,0.00,LWC V2.00 B2112,2013-09-20 22:47:00,
2013-09-20 15:52:00,75.4,47.3,29.57,SSW,205,2.0,2.0,37,0.00,,,0.00,LWC V2.00 B2112,2013-09-20 22:52:00,
2013-09-20 15:57:00,75.5,43.6,29.57,SSW,205,0.0,1.0,32,0.00,,,0.00,LWC V2.00 B2112,2013-09-20 22:57:00,
2013-09-20 16:02:00,76.2,45.8,29.57,SW,217,3.0,3.0,34,0.00,,,0.00,LWC V2.00 B2112,2013-09-20 23:02:00,
2013-09-20 16:07:00,76.9,44.8,29.57,WSW,242,1.0,3.0,32,0.00,,,0.00,LWC V2.00 B2112,2013-09-20 23:07:00,
2013-09-20 16:12:00,76.9,43.1,29.56,West,277,2.0,2.0,30,0.00,,,0.00,LWC V2.00 B2112,2013-09-20 23:12:00,
2013-09-20 16:17:00,76.9,42.2,29.56,West,277,2.0,2.0,29,0.00,,,0.00,LWC V2.00 B2112,2013-09-20 23:17:00,
2013-09-20 16:22:00,77.1,44.9,29.56,West,277,0.0,2.0,32,0.00,,,0.00,LWC V2.00 B2112,2013-09-20 23:22:00,
2013-09-20 16:27:00,77.4,46.8,29.56,West,277,1.0,1.0,34,0.00,,,0.00,LWC V2.00 B2112,2013-09-20 23:27:00,
2013-09-20 16:32:00,77.1,46.5,29.55,West,260,1.0,2.0,34,0.00,,,0.00,LWC V2.00 B2112,2013-09-20 23:32:00,
2013-09-20 16:37:00,76.4,48.9,29.55,WSW,246,1.0,2.0,38,0.00,,,0.00,LWC V2.00 B2112,2013-09-20 23:37:00,
2013-09-20 16:42:00,75.8,51.1,29.55,WSW,246,1.0,1.0,42,0.00,,,0.00,LWC V2.00 B2112,2013-09-20 23:42:00,
2013-09-20 16:47:00,75.3,54.2,29.55,WSW,246,0.0,0.0,48,0.00,,,0.00,LWC V2.00 B2112,2013-09-20 23:47:00,
2013-09-20 16:52:00,75.2,56.9,29.55,WSW,243,1.0,2.0,53,0.00,,,0.00,LWC V2.00 B2112,2013-09-20 23:52:00,
2013-09-20 16:57:00,74.8,50.8,29.55,WSW,243,1.0,2.0,43,0.00,,,0.00,LWC V2.00 B2112,2013-09-20 23:57:00,
2013-09-20 17:02:00,74.6,52.4,29.55,WSW,243,0.0,0.0,46,0.00,,,0.00,LWC V2.00 B2112,2013-09-21 00:02:00,
2013-09-20 17:07:00,74.5,52.9,29.55,WSW,243,0.0,0.0,47,0.00,,,0.00,LWC V2.00 B2112,2013-09-21 00:07:00,
2013-09-20 17:12:00,74.7,55.9,29.55,WSW,243,0.0,0.0,52,0.00,,,0.00,LWC V2.00 B2112,2013-09-21 00:12:00,
2013-09-20 17:17:00,74.6,53.6,29.54,WSW,243,0.0,1.0,48,0.00,,,0.00,LWC V2.00 B2112,2013-09-21 00:17:00,
2013-09-20 17:22:00,73.9,52.4,29.54,WSW,243,0.0,1.0,47,0.00,,,0.00,LWC V2.00 B2112,2013-09-21 00:22:00,
2013-09-20 17:27:00,73.0,53.8,29.54,WSW,243,1.0,1.0,51,0.00,,,0.00,LWC V2.00 B2112,2013-09-21 00:27:00,
2013-09-20 17:32:00,72.0,54.4,29.54,WSW,243,0.0,1.0,54,0.00,,,0.00,LWC V2.00 B2112,2013-09-21 00:32:00,
2013-09-20 17:37:00,71.3,55.3,29.54,WSW,243,0.0,0.0,57,0.00,,,0.00,LWC V2.00 B2112,2013-09-21 00:37:00,
2013-09-20 17:42:00,70.3,53.8,29.53,WSW,243,0.0,1.0,56,0.00,,,0.00,LWC V2.00 B2112,2013-09-21 00:42:00,
2013-09-20 17:47:00,69.4,53.5,29.53,WSW,243,0.0,0.0,57,0.00,,,0.00,LWC V2.00 B2112,2013-09-21 00:47:00,
2013-09-20 17:52:00,68.8,54.8,29.53,WSW,243,0.0,0.0,61,0.00,,,0.00,LWC V2.00 B2112,2013-09-21 00:52:00,
2013-09-20 17:57:00,68.2,55.1,29.53,WSW,243,0.0,0.0,63,0.00,,,0.00,LWC V2.00 B2112,2013-09-21 00:57:00,
2013-09-20 18:02:00,67.7,55.5,29.53,WSW,243,0.0,0.0,65,0.00,,,0.00,LWC V2.00 B2112,2013-09-21 01:02:00,
2013-09-20 18:07:00,67.3,56.0,29.53,WSW,243,0.0,0.0,67,0.00,,,0.00,LWC V2.00 B2112,2013-09-21 01:07:00,
2013-09-20 18:12:00,66.6,55.7,29.53,WSW,243,0.0,0.0,68,0.00,,,0.00,LWC V2.00 B2112,2013-09-21 01:12:00,
2013-09-20 18:17:00,66.1,55.6,29.53,WSW,243,0.0,0.0,69,0.00,,,0.00,LWC V2.00 B2112,2013-09-21 01:17:00,
2013-09-20 18:22:00,65.4,55.4,29.53,WSW,243,0.0,0.0,70,0.00,,,0.00,LWC V2.00 B2112,2013-09-21 01:22:00,
2013-09-20 18:27:00,64.8,55.2,29.53,WSW,243,0.0,0.0,71,0.00,,,0.00,LWC V2.00 B2112,2013-09-21 01:27:00,
2013-09-20 18:32:00,64.1,54.9,29.53,WSW,243,0.0,0.0,72,0.00,,,0.00,LWC V2.00 B2112,2013-09-21 01:32:00,
2013-09-20 18:37:00,63.4,55.0,29.53,WSW,243,0.0,0.0,74,0.00,,,0.00,LWC V2.00 B2112,2013-09-21 01:37:00,
2013-09-20 18:42:00,62.9,55.2,29.53,WSW,243,1.0,1.0,76,0.00,,,0.00,LWC V2.00 B2112,2013-09-21 01:42:00,
2013-09-20 18:47:00,62.5,55.2,29.53,WSW,243,0.0,0.0,77,0.00,,,0.00,LWC V2.00 B2112,2013-09-21 01:47:00,
2013-09-20 18:52:00,61.9,54.6,29.53,WSW,243,0.0,0.0,77,0.00,,,0.00,LWC V2.00 B2112,2013-09-21 01:52:00,
2013-09-20 18:57:00,61.4,54.5,29.53,WSW,243,0.0,0.0,78,0.00,,,0.00,LWC V2.00 B2112,2013-09-21 01:57:00,
2013-09-20 19:02:00,61.1,54.2,29.53,WSW,243,0.0,1.0,78,0.00,,,0.00,LWC V2.00 B2112,2013-09-21 02:02:00,
2013-09-20 19:07:00,60.5,53.6,29.53,WSW,248,2.0,2.0,78,0.00,,,0.00,LWC V2.00 B2112,2013-09-21 02:07:00,
2013-09-20 19:12:00,60.3,54.1,29.54,WSW,248,0.0,1.0,80,0.00,,,0.00,LWC V2.00 B2112,2013-09-21 02:12:00,
2013-09-20 19:17:00,60.2,54.0,29.54,WSW,248,0.0,0.0,80,0.00,,,0.00,LWC V2.00 B2112,2013-09-21 02:17:00,
2013-09-20 19:22:00,60.0,53.1,29.54,WSW,248,0.0,0.0,78,0.00,,,0.00,LWC V2.00 B2112,2013-09-21 02:22:00,
2013-09-20 19:27:00,59.8,53.6,29.54,WSW,248,0.0,0.0,80,0.00,,,0.00,LWC V2.00 B2112,2013-09-21 02:27:00,
2013-09-20 19:32:00,59.6,53.4,29.54,WSW,248,0.0,0.0,80,0.00,,,0.00,LWC V2.00 B2112,2013-09-21 02:32:00,
2013-09-20 19:37:00,59.3,53.1,29.54,WSW,248,1.0,2.0,80,0.00,,,0.00,LWC V2.00 B2112,2013-09-21 02:37:00,
2013-09-20 19:42:00,59.1,52.9,29.53,West,268,1.0,1.0,80,0.00,,,0.00,LWC V2.00 B2112,2013-09-21 02:42:00,
2013-09-20 19:47:00,59.1,51.5,29.52,West,267,2.0,4.0,76,0.00,,,0.00,LWC V2.00 B2112,2013-09-21 02:47:00,
2013-09-20 19:52:00,59.3,52.8,29.53,West,273,1.0,1.0,79,0.00,,,0.00,LWC V2.00 B2112,2013-09-21 02:52:00,
2013-09-20 19:57:00,58.9,51.3,29.53,East,93,0.0,2.0,76,0.00,,,0.00,LWC V2.00 B2112,2013-09-21 02:57:00,
2013-09-20 20:02:00,58.8,51.2,29.54,NW,308,1.0,3.0,76,0.00,,,0.00,LWC V2.00 B2112,2013-09-21 03:02:00,
2013-09-20 20:07:00,58.9,51.7,29.54,West,277,0.0,2.0,77,0.00,,,0.00,LWC V2.00 B2112,2013-09-21 03:07:00,
2013-09-20 20:12:00,58.8,51.6,29.55,West,277,0.0,1.0,77,0.00,,,0.00,LWC V2.00 B2112,2013-09-21 03:12:00,
2013-09-20 20:17:00,58.7,51.2,29.55,West,263,1.0,3.0,76,0.00,,,0.00,LWC V2.00 B2112,2013-09-21 03:17:00,
2013-09-20 20:22:00,58.8,51.6,29.55,WNW,284,1.0,1.0,77,0.00,,,0.00,LWC V2.00 B2112,2013-09-21 03:22:00,
2013-09-20 20:27:00,58.7,51.9,29.56,NE,46,2.0,2.0,78,0.00,,,0.00,LWC V2.00 B2112,2013-09-21 03:27:00,
2013-09-20 20:32:00,58.4,49.8,29.56,ENE,67,0.0,1.0,73,0.00,,,0.00,LWC V2.00 B2112,2013-09-21 03:32:00,
2013-09-20 20:37:00,58.4,51.6,29.56,NW,307,3.0,3.0,78,0.00,,,0.00,LWC V2.00 B2112,2013-09-21 03:37:00,
2013-09-20 20:42:00,58.4,50.9,29.55,WNW,287,2.0,4.0,76,0.00,,,0.00,LWC V2.00 B2112,2013-09-21 03:42:00,
2013-09-20 20:47:00,58.3,50.4,29.55,NW,324,3.0,6.0,75,0.00,,,0.00,LWC V2.00 B2112,2013-09-21 03:47:00,
2013-09-20 20:52:00,58.4,50.5,29.55,East,94,0.0,2.0,75,0.00,,,0.00,LWC V2.00 B2112,2013-09-21 03:52:00,
2013-09-20 20:57:00,58.3,50.8,29.56,East,93,1.0,1.0,76,0.00,,,0.00,LWC V2.00 B2112,2013-09-21 03:57:00,
2013-09-20 21:01:00,58.2,50.3,29.56,NE,53,0.0,1.0,75,0.00,,,0.00,LWC V2.00 B2112,2013-09-21 04:01:00,
2013-09-20 21:06:00,58.2,50.0,29.56,NE,50,0.0,1.0,74,0.00,,,0.00,LWC V2.00 B2112,2013-09-21 04:06:00,
2013-09-20 21:11:00,58.2,50.7,29.57,South,182,2.0,2.0,76,0.00,,,0.00,LWC V2.00 B2112,2013-09-21 04:11:00,
2013-09-20 21:16:00,58.2,50.3,29.56,NW,313,1.0,1.0,75,0.00,,,0.00,LWC V2.00 B2112,2013-09-21 04:16:00,
2013-09-20 21:21:00,58.2,50.3,29.57,North,350,0.0,2.0,75,0.00,,,0.00,LWC V2.00 B2112,2013-09-21 04:21:00,
2013-09-20 21:26:00,58.2,50.3,29.57,NE,39,1.0,1.0,75,0.00,,,0.00,LWC V2.00 B2112,2013-09-21 04:26:00,
2013-09-20 21:31:00,58.3,50.4,29.57,NE,53,2.0,2.0,75,0.00,,,0.00,LWC V2.00 B2112,2013-09-21 04:31:00,
2013-09-20 21:36:00,58.3,50.8,29.57,West,259,3.0,3.0,76,0.00,,,0.00,LWC V2.00 B2112,2013-09-21 04:36:00,
2013-09-20 21:41:00,58.6,48.8,29.56,West,269,3.0,4.0,70,0.00,,,0.00,LWC V2.00 B2112,2013-09-21 04:41:00,
2013-09-20 21:46:00,59.8,50.0,29.56,West,277,3.0,4.0,70,0.00,,,0.00,LWC V2.00 B2112,2013-09-21 04:46:00,
2013-09-20 21:51:00,59.7,50.7,29.55,West,265,1.0,1.0,72,0.00,,,0.00,LWC V2.00 B2112,2013-09-21 04:51:00,
2013-09-20 21:56:00,59.5,48.9,29.55,West,265,1.0,2.0,68,0.00,,,0.00,LWC V2.00 B2112,2013-09-21 04:56:00,
2013-09-20 22:01:00,59.4,50.0,29.54,NW,325,1.0,2.0,71,0.00,,,0.00,LWC V2.00 B2112,2013-09-21 05:01:00,
2013-09-20 22:06:00,59.1,50.5,29.54,NW,325,0.0,1.0,73,0.00,,,0.00,LWC V2.00 B2112,2013-09-21 05:06:00,
2013-09-20 22:11:00,58.7,50.1,29.54,NNW,330,1.0,2.0,73,0.00,,,0.00,LWC V2.00 B2112,2013-09-21 05:11:00,
2013-09-20 22:16:00,58.4,50.1,29.54,NW,318,0.0,2.0,74,0.00,,,0.00,LWC V2.00 B2112,2013-09-21 05:16:00,
2013-09-20 22:21:00,58.2,49.6,29.54,NE,45,1.0,2.0,73,0.00,,,0.00,LWC V2.00 B2112,2013-09-21 05:21:00,
2013-09-20 22:26:00,58.2,49.6,29.54,NE,44,1.0,2.0,73,0.00,,,0.00,LWC V2.00 B2112,2013-09-21 05:26:00,
2013-09-20 22:31:00,58.2,50.0,29.55,NE,44,1.0,1.0,74,0.00,,,0.00,LWC V2.00 B2112,2013-09-21 05:31:00,
2013-09-20 22:36:00,58.2,50.0,29.55,NE,44,0.0,1.0,74,0.00,,,0.00,LWC V2.00 B2112,2013-09-21 05:36:00,
2013-09-20 22:41:00,58.0,49.8,29.54,NE,44,0.0,0.0,74,0.00,,,0.00,LWC V2.00 B2112,2013-09-21 05:41:00,
2013-09-20 22:46:00,57.8,49.6,29.54,West,279,3.0,3.0,74,0.00,,,0.00,LWC V2.00 B2112,2013-09-21 05:46:00,
2013-09-20 22:51:00,58.4,49.4,29.54,WSW,243,2.0,3.0,72,0.00,,,0.00,LWC V2.00 B2112,2013-09-21 05:51:00,
2013-09-20 22:56:00,58.5,50.6,29.54,SW,227,0.0,1.0,75,0.00,,,0.00,LWC V2.00 B2112,2013-09-21 05:56:00,
2013-09-20 23:01:00,58.3,49.3,29.54,WNW,284,1.0,2.0,72,0.00,,,0.00,LWC V2.00 B2112,2013-09-21 06:01:00,
2013-09-20 23:06:00,58.4,50.1,29.53,WNW,293,1.0,3.0,74,0.00,,,0.00,LWC V2.00 B2112,2013-09-21 06:06:00,
2013-09-20 23:11:00,58.2,50.3,29.54,NNW,327,0.0,2.0,75,0.00,,,0.00,LWC V2.00 B2112,2013-09-21 06:11:00,
2013-09-20 23:16:00,58.0,49.8,29.54,East,96,0.0,1.0,74,0.00,,,0.00,LWC V2.00 B2112,2013-09-21 06:16:00,
2013-09-20 23:21:00,57.9,50.4,29.55,NE,49,0.0,1.0,76,0.00,,,0.00,LWC V2.00 B2112,2013-09-21 06:21:00,
2013-09-20 23:26:00,58.2,48.8,29.53,WNW,299,5.0,5.0,71,0.00,,,0.00,LWC V2.00 B2112,2013-09-21 06:26:00,
2013-09-20 23:31:00,59.8,48.8,29.53,West,270,2.0,4.0,67,0.00,,,0.00,LWC V2.00 B2112,2013-09-21 06:31:00,
2013-09-20 23:36:00,60.4,49.4,29.55,NW,311,2.0,3.0,67,0.00,,,0.00,LWC V2.00 B2112,2013-09-21 06:36:00,
2013-09-20 23:41:00,60.4,49.4,29.55,NW,322,0.0,0.0,67,0.00,,,0.00,LWC V2.00 B2112,2013-09-21 06:41:00,
2013-09-20 23:46:00,60.6,49.6,29.55,West,267,1.0,3.0,67,0.00,,,0.00,LWC V2.00 B2112,2013-09-21 06:46:00,
2013-09-20 23:51:00,60.3,50.1,29.55,West,267,1.0,1.0,69,0.00,,,0.00,LWC V2.00 B2112,2013-09-21 06:51:00,
2013-09-20 23:56:00,59.8,49.2,29.56,ENE,59,1.0,2.0,68,0.00,,,0.00,LWC V2.00 B2112,2013-09-21 06:56:00,